Location: B�rgermoos
(47.6500°N, 9.0667°E)
Time: 16:02:42
(UTC+00:00)

Tiros 1 despin weight - All Passes

Search period start: 28 July 2021 00:00
Search period end: 07 August 2021 00:00
Orbit: 593 x 642 km, 48.2° (Epoch: 28 July)

Date Brightness Start Highest point End Pass type
(mag) Time Alt. Az. Time Alt. Az. Time Alt. Az.
28 Jul - 13:14:58 10° S 13:18:08 18° SE 13:21:19 10° E daylight
28 Jul - 14:54:27 10° SW 14:59:04 57° SSE 15:03:40 10° E daylight
28 Jul - 16:35:52 10° W 16:40:36 84° N 16:45:16 10° E daylight
28 Jul - 18:17:32 10° W 18:22:14 76° SSW 18:26:51 10° ESE daylight
28 Jul - 19:59:24 10° W 20:03:24 28° SW 20:07:19 10° SSE visible
29 Jul - 13:30:01 10° SSW 13:34:05 30° SE 13:38:09 10° E daylight
29 Jul - 15:10:35 10° WSW 15:15:17 78° SSE 15:19:59 10° E daylight
29 Jul - 16:52:12 10° W 16:56:55 84° N 17:01:36 10° E daylight
29 Jul - 18:33:51 10° W 18:38:26 56° SSW 18:42:58 10° SE daylight
29 Jul - 20:16:17 10° W 20:19:19 17° SW 20:22:19 10° S visible
30 Jul - 12:07:18 10° SSE 12:09:24 13° SE 12:11:31 10° ESE daylight
30 Jul - 13:45:40 10° SW 13:50:08 46° SSE 13:54:38 10° E daylight
30 Jul - 15:26:51 10° W 15:31:34 88° NNW 15:36:16 10° E daylight
30 Jul - 17:08:31 10° W 17:13:14 86° SSW 17:17:54 10° ESE daylight
30 Jul - 18:50:15 10° W 18:54:33 37° SSW 18:58:49 10° SE daylight
31 Jul - 12:21:40 10° SSW 12:25:16 22° SE 12:28:54 10° E daylight
31 Jul - 14:01:40 10° WSW 14:06:19 66° SSE 14:10:58 10° ENE daylight
31 Jul - 15:43:11 10° W 15:47:54 83° N 15:52:36 10° E daylight
31 Jul - 17:24:49 10° WNW 17:29:30 68° SSW 17:34:07 10° ESE daylight
31 Jul - 19:06:50 10° W 19:10:33 24° SW 19:14:13 10° SSE daylight
01 Aug - 12:37:01 10° SSW 12:41:16 35° SSE 12:45:33 10° E daylight
01 Aug - 14:17:51 10° WSW 14:22:34 84° SSE 14:27:16 10° E daylight
01 Aug - 15:59:30 10° W 16:04:14 87° NNE 16:08:55 10° E daylight
01 Aug - 17:41:09 10° W 17:45:40 48° SSW 17:50:08 10° SE daylight
01 Aug - 19:24:04 10° WSW 19:26:26 14° SW 19:28:47 10° SSW daylight
02 Aug - 11:13:37 10° S 11:16:31 16° SE 11:19:24 10° E daylight
02 Aug - 12:52:49 10° SW 12:57:22 53° SSE 13:01:57 10° E daylight
02 Aug - 14:34:09 10° W 14:38:51 85° N 14:43:34 10° E daylight
02 Aug - 16:15:48 10° W 16:20:31 80° SSW 16:25:12 10° ESE daylight
02 Aug - 17:57:36 10° W 18:01:44 31° SW 18:05:49 10° SSE daylight
03 Aug - 11:28:31 10° SSW 11:32:25 27° SE 11:36:22 10° E daylight
03 Aug - 13:08:54 10° WSW 13:13:34 74° SSE 13:18:16 10° ENE daylight
03 Aug - 14:50:28 10° W 14:55:11 83° N 14:59:54 10° E daylight
03 Aug - 16:32:06 10° WNW 16:36:45 60° SSW 16:41:20 10° ESE daylight
03 Aug - 18:14:22 10° W 18:17:41 19° SW 18:20:59 10° S daylight
04 Aug - 10:06:21 10° SSE 10:07:47 11° SE 10:09:14 10° ESE daylight
04 Aug - 11:44:04 10° SW 11:48:27 42° SSE 11:52:53 10° E daylight
04 Aug - 13:25:08 10° W 13:29:50 90° S 13:34:33 10° E daylight
04 Aug - 15:06:47 10° W 15:11:30 89° SSW 15:16:12 10° ESE daylight
04 Aug - 16:48:28 10° W 16:52:53 41° SSW 16:57:14 10° SE daylight
04 Aug - 18:32:24 10° WSW 18:33:31 11° SW 18:34:38 10° SSW daylight
05 Aug - 10:20:15 10° S 10:23:37 20° SE 10:27:02 10° E daylight
05 Aug - 12:00:00 10° WSW 12:04:35 62° SSE 12:09:14 10° ENE daylight
05 Aug - 13:41:27 10° W 13:46:09 83° N 13:50:52 10° E daylight
05 Aug - 15:23:05 10° WNW 15:27:47 72° SSW 15:32:27 10° ESE daylight
05 Aug - 17:05:01 10° W 17:08:54 26° SW 17:12:46 10° SSE daylight
06 Aug - 10:35:28 10° SSW 10:39:35 32° SSE 10:43:46 10° E daylight
06 Aug - 12:16:09 10° WSW 12:20:50 81° SSE 12:25:32 10° E daylight
06 Aug - 13:57:46 10° W 14:02:29 85° N 14:07:12 10° E daylight
06 Aug - 15:39:24 10° W 15:43:58 52° SSW 15:48:30 10° SE daylight
06 Aug - 17:22:01 10° W 17:24:48 16° SW 17:27:34 10° S daylight
